This demonstration page uses our WeatherBlox Daily Observations layout. Learn more.

Left ArrowRight Arrow

Hourly Observations for February 4, 2020

Temp ( °F °C ) Dew Point ( °F °C ) Humidity (%) Winds ( mph kmh ) Pressure ( in mb ) Visibility ( mi km ) Precip ( " mm )
12:56 am 00:56 Cloudy 24 -4.4 16 -8.9 71 71 N 28 44 30.06 1018 10 16 0.00 0.00
1:56 am 01:56 Cloudy 23 -5 15 -9.4 72 72 N 20 31 30.09 1019 10 16 0.00 0.00
2:56 am 02:56 Cloudy 23 -5 15 -9.4 72 72 N 21 33 30.10 1019 10 16 0.00 0.00
3:56 am 03:56 Cloudy 23 -5 14 -10 68 68 N 21 33 30.13 1020 10 16 0.00 0.00
4:56 am 04:56 Cloudy 22 -5.6 13 -10.6 68 68 NNE 22 35 30.13 1020 10 16 0.00 0.00
5:56 am 05:56 Mostly Cloudy 22 -5.6 13 -10.6 68 68 N 21 33 30.16 1021 10 16 0.00 0.00
6:56 am 06:56 Cloudy 21 -6.1 12 -11.1 68 68 N 20 31 30.19 1022 10 16 0.00 0.00
7:56 am 07:56 Cloudy 21 -6.1 11 -11.7 65 65 NNE 20 31 30.20 1023 10 16 0.00 0.00
8:56 am 08:56 Cloudy 21 -6.1 12 -11.1 68 68 N 17 28 30.25 1024 10 16 0.00 0.00
9:56 am 09:56 Mostly Sunny 23 -5 10 -12.2 57 57 NNE 22 35 30.27 1025 10 16 0.00 0.00
10:56 am 10:56 Mostly Sunny 23 -5 9 -12.8 55 55 NNE 23 37 30.27 1025 10 16 0.00 0.00
11:56 am 11:56 Mostly Sunny 27 -2.8 10 -12.2 49 49 NNE 24 39 30.26 1025 10 16 0.00 0.00
12:56 pm 12:56 Sunny 29 -1.7 9 -12.8 43 43 NNE 22 35 30.23 1024 10 16 0.00 0.00
1:56 pm 13:56 Partly Cloudy 28 -2.2 10 -12.2 47 47 NNE 22 35 30.24 1024 10 16 0.00 0.00
2:56 pm 14:56 Sunny 28 -2.2 10 -12.2 47 47 NNE 21 33 30.25 1024 10 16 0.00 0.00
3:56 pm 15:56 Cloudy 27 -2.8 11 -11.7 51 51 NNE 20 31 30.25 1024 10 16 0.00 0.00
4:56 pm 16:56 Partly Cloudy 26 -3.3 11 -11.7 53 53 NNE 18 30 30.26 1025 10 16 0.00 0.00
5:56 pm 17:56 Cloudy 25 -3.9 12 -11.1 58 58 NNE 13 20 30.27 1025 10 16 0.00 0.00
6:56 pm 18:56 Cloudy 24 -4.4 12 -11.1 60 60 NNE 14 22 30.27 1025 10 16 0.00 0.00
7:56 pm 19:56 Cloudy 24 -4.4 12 -11.1 60 60 NNE 13 20 30.28 1026 10 16 0.00 0.00
8:56 pm 20:56 Cloudy 23 -5 12 -11.1 63 63 N 12 19 30.29 1026 10 16 0.00 0.00
9:56 pm 21:56 Cloudy 23 -5 12 -11.1 63 63 N 12 19 30.29 1026 10 16 0.00 0.00
10:56 pm 22:56 Cloudy with Light Snow 22 -5.6 11 -11.7 63 63 NNE 12 19 30.29 1026 9 14 0.00 0.00
11:56 pm 23:56 Cloudy with Light Snow 21 -6.1 13 -10.6 71 71 NNE 10 17 30.27 1025 9 14 0.00 0.00

Powered by AerisWeather